USA 254

Last updated on Nov. 16, 2019, 4:19 a.m. UTC

1 40100U 14043B   19319.62843369  .00000021  00000-0  00000+0 0  9993
2 40100   0.0641  94.6333 0002653 182.9438 240.0627  1.00388306  3639
UTC
Height (km)
Latitude
Longitude
Inclination
Orbital Period
UTC large
Height (km)
Speed (km/s)
/
Latitude / Longitude
Inclination (degrees)
Orbital Period (minutes)
Azimuth
Elevation
Range (km)
Doppler Factor
iOS Compass Heading
iOS Angle

Next 30 passes for location: Hong Kong

Rise time Rise Azimuth (degrees) Set time Set Azimuth (degrees) Duration Max altitude (degrees)

No matching passes for this satellites